EIN116H KBOS-EINN

Flight info

Callsign EIN116H
Flight time N/A
Altitude 37000
Route LBSTA8 LBSTA DCT EBONY DCT NEEKO/M081F390 DCT 54N050W 55N040W 55N030W 54N020W DCT MALOT DCT GISTI/N0475F390 DCT UNBEG UNBEG2E
Aircraft B762/H-SDE3FGHIM3RWXY/LB1

Departure

Time N/A
Airport Boston Logan International Airport (KBOS)

Arrival

Time 2026-04-30 22:13
Airport Shannon Airport (EINN)
Time Latitude Longitude Altitude Speed Heading
2026-04-30 15:19 42.36798 -71.01412 16 ft 0 kts 260°
2026-04-30 17:39 48.84079 -61.84092 37133 ft 468 kts 47°
2026-04-30 17:41 49.02955 -61.55584 37190 ft 486 kts 47°
2026-04-30 17:42 49.07725 -61.48328 37195 ft 486 kts 47°
2026-04-30 17:43 49.19699 -61.30024 37198 ft 491 kts 48°
2026-04-30 17:44 49.34072 -61.07873 37207 ft 492 kts 48°
2026-04-30 17:47 49.55599 -60.74330 37218 ft 492 kts 48°
2026-04-30 17:48 49.72356 -60.47909 37227 ft 494 kts 48°
2026-04-30 17:50 49.91411 -60.17524 37239 ft 493 kts 49°
2026-04-30 17:52 50.05675 -59.94537 37240 ft 495 kts 49°
2026-04-30 17:54 50.27054 -59.59685 37234 ft 496 kts 49°
2026-04-30 17:56 50.46048 -59.28312 37233 ft 497 kts 49°
2026-04-30 17:58 50.60226 -59.04637 37236 ft 498 kts 49°
2026-04-30 18:00 50.79077 -58.72809 37244 ft 499 kts 49°
2026-04-30 18:01 50.90836 -58.52750 37256 ft 498 kts 49°
2026-04-30 18:02 51.04874 -58.28590 37249 ft 502 kts 50°
2026-04-30 18:04 51.18960 -58.04116 37244 ft 501 kts 50°
2026-04-30 18:06 51.37651 -57.71267 37244 ft 501 kts 49°
2026-04-30 18:08 51.53862 -57.42423 37236 ft 500 kts 49°
2026-04-30 18:10 51.72361 -57.09100 37221 ft 501 kts 50°
2026-04-30 18:11 51.88470 -56.79719 37225 ft 500 kts 50°
2026-04-30 18:13 51.99905 -56.58651 37220 ft 502 kts 49°
2026-04-30 18:14 52.11338 -56.37410 37202 ft 503 kts 50°
2026-04-30 18:15 52.25024 -56.11745 37217 ft 501 kts 50°
2026-04-30 18:16 52.34081 -55.94614 37222 ft 501 kts 50°
2026-04-30 18:17 52.38466 -55.85864 37220 ft 500 kts 57°
2026-04-30 18:18 52.43616 -55.71103 37228 ft 499 kts 63°
2026-04-30 18:18 52.46822 -55.61039 37227 ft 499 kts 64°
2026-04-30 18:19 52.49963 -55.50912 37222 ft 499 kts 64°
2026-04-30 18:19 52.53056 -55.40819 37232 ft 498 kts 64°
2026-04-30 18:20 52.56153 -55.30640 37231 ft 498 kts 65°
2026-04-30 18:20 52.59224 -55.20495 37237 ft 498 kts 65°
2026-04-30 18:21 52.62282 -55.10342 37235 ft 498 kts 65°
2026-04-30 18:21 52.65342 -55.00142 37237 ft 499 kts 65°
2026-04-30 18:22 52.68392 -54.89927 37238 ft 499 kts 65°
2026-04-30 18:22 52.72932 -54.74645 37234 ft 498 kts 65°
2026-04-30 18:23 52.75967 -54.64373 37239 ft 498 kts 65°
2026-04-30 18:23 52.78980 -54.54129 37241 ft 498 kts 65°
2026-04-30 18:24 52.83477 -54.38761 37260 ft 496 kts 65°
2026-04-30 18:25 52.86443 -54.28569 37267 ft 495 kts 66°
2026-04-30 18:25 52.90874 -54.13261 37280 ft 493 kts 66°
2026-04-30 18:26 52.95277 -53.97953 37284 ft 492 kts 66°
2026-04-30 18:27 52.99668 -53.82583 37307 ft 491 kts 66°
2026-04-30 18:28 53.04017 -53.67264 37327 ft 491 kts 66°
2026-04-30 18:28 53.08326 -53.51984 37346 ft 490 kts 66°
2026-04-30 18:29 53.14049 -53.31533 37343 ft 489 kts 66°
2026-04-30 18:30 53.16898 -53.21287 37591 ft 483 kts 67°
2026-04-30 18:30 53.19671 -53.11269 37910 ft 478 kts 66°
2026-04-30 18:31 53.23806 -52.96244 37904 ft 478 kts 66°
2026-04-30 18:32 53.27941 -52.81128 37923 ft 478 kts 66°
2026-04-30 18:33 53.32044 -52.66028 37931 ft 478 kts 66°
2026-04-30 18:33 53.36120 -52.50929 37948 ft 478 kts 66°
2026-04-30 18:34 53.40197 -52.35724 37958 ft 478 kts 66°
2026-04-30 18:35 53.42892 -52.25617 37970 ft 478 kts 68°
2026-04-30 18:35 53.45582 -52.15486 37974 ft 478 kts 68°
2026-04-30 18:36 53.49610 -52.00229 37970 ft 479 kts 67°
2026-04-30 18:37 53.53625 -51.84919 37993 ft 479 kts 68°
2026-04-30 18:37 53.56279 -51.74742 38008 ft 479 kts 68°
2026-04-30 18:38 53.58935 -51.64511 38029 ft 479 kts 68°
2026-04-30 18:38 53.61576 -51.54292 38052 ft 479 kts 68°
2026-04-30 18:39 53.64210 -51.44054 38075 ft 479 kts 68°
2026-04-30 18:39 53.66836 -51.33796 38108 ft 479 kts 68°
2026-04-30 18:40 53.69450 -51.23540 38110 ft 479 kts 68°
2026-04-30 18:40 53.72074 -51.13198 38117 ft 479 kts 68°
2026-04-30 18:41 53.74673 -51.02908 38124 ft 479 kts 68°
2026-04-30 18:41 53.77257 -50.92628 38142 ft 479 kts 68°
2026-04-30 18:42 53.79845 -50.82283 38160 ft 479 kts 68°
2026-04-30 18:42 53.83702 -50.66777 38178 ft 480 kts 68°
2026-04-30 18:45 53.96464 -50.14678 38281 ft 481 kts 69°
2026-04-30 18:45 53.97728 -50.09451 38290 ft 481 kts 69°
2026-04-30 18:46 54.00006 -49.98848 38299 ft 479 kts 77°
2026-04-30 18:46 54.01689 -49.87893 38324 ft 480 kts 77°
2026-04-30 18:47 54.03293 -49.76947 38349 ft 480 kts 78°
2026-04-30 18:47 54.04859 -49.66003 38369 ft 480 kts 78°
2026-04-30 18:48 54.06419 -49.54970 38391 ft 481 kts 78°
2026-04-30 18:48 54.07960 -49.43965 38416 ft 481 kts 78°
2026-04-30 18:49 54.09493 -49.32930 38436 ft 481 kts 79°
2026-04-30 18:49 54.11015 -49.21888 38438 ft 481 kts 79°
2026-04-30 18:50 54.12532 -49.10807 38428 ft 481 kts 79°
2026-04-30 18:50 54.14037 -48.99726 38428 ft 481 kts 79°
2026-04-30 18:51 54.15533 -48.88629 38429 ft 482 kts 79°
2026-04-30 18:51 54.17012 -48.77578 38424 ft 482 kts 79°
2026-04-30 18:52 54.18495 -48.66415 38423 ft 482 kts 79°
2026-04-30 18:52 54.19955 -48.55331 38652 ft 479 kts 79°
2026-04-30 18:52 54.20675 -48.49842 39162 ft 475 kts 79°
2026-04-30 18:53 54.21383 -48.44417 39321 ft 474 kts 79°
2026-04-30 18:53 54.22818 -48.33354 39288 ft 480 kts 79°
2026-04-30 18:54 54.24252 -48.22212 39303 ft 485 kts 79°
2026-04-30 18:54 54.25691 -48.10954 39302 ft 489 kts 79°
2026-04-30 18:55 54.27127 -47.99618 39304 ft 494 kts 79°
2026-04-30 18:55 54.29289 -47.82384 39304 ft 499 kts 79°
2026-04-30 18:56 54.31455 -47.64904 39302 ft 501 kts 79°
2026-04-30 18:57 54.33585 -47.47486 39308 ft 501 kts 79°
2026-04-30 18:57 54.34987 -47.35898 39310 ft 502 kts 79°
2026-04-30 18:58 54.37075 -47.18452 39306 ft 502 kts 80°
2026-04-30 18:59 54.39149 -47.00902 39312 ft 501 kts 80°
2026-04-30 19:00 54.41867 -46.77529 39329 ft 501 kts 80°
2026-04-30 19:01 54.44540 -46.54126 39318 ft 501 kts 80°
2026-04-30 19:02 54.46514 -46.36552 39319 ft 503 kts 80°
2026-04-30 19:02 54.47821 -46.24794 39443 ft 502 kts 81°
2026-04-30 19:03 54.49114 -46.13050 39330 ft 500 kts 81°
2026-04-30 19:04 54.51655 -45.89633 39323 ft 501 kts 81°
2026-04-30 19:05 54.54151 -45.66174 39318 ft 501 kts 81°
2026-04-30 19:06 54.56608 -45.42636 39319 ft 502 kts 81°
2026-04-30 19:06 54.58413 -45.25035 39323 ft 502 kts 82°
2026-04-30 19:07 54.60205 -45.07299 39335 ft 501 kts 82°
2026-04-30 19:08 54.62547 -44.83688 39335 ft 501 kts 81°
2026-04-30 19:09 54.64275 -44.65955 39341 ft 502 kts 81°
2026-04-30 19:09 54.65411 -44.54140 39344 ft 501 kts 81°
2026-04-30 19:10 54.67643 -44.30543 39328 ft 501 kts 82°
2026-04-30 19:11 54.69298 -44.12709 39335 ft 502 kts 82°
2026-04-30 19:12 54.70383 -44.00849 39330 ft 503 kts 82°
2026-04-30 19:12 54.71459 -43.88959 39336 ft 502 kts 82°
2026-04-30 19:13 54.73574 -43.65182 39339 ft 503 kts 82°
2026-04-30 19:14 54.74612 -43.53301 39330 ft 503 kts 82°
2026-04-30 19:14 54.75642 -43.41379 39327 ft 501 kts 82°
2026-04-30 19:15 54.76657 -43.29498 39323 ft 501 kts 83°
2026-04-30 19:15 54.78154 -43.11688 39340 ft 501 kts 83°
2026-04-30 19:16 54.79140 -42.99774 39344 ft 502 kts 83°
2026-04-30 19:17 54.80593 -42.81968 39347 ft 503 kts 83°
2026-04-30 19:17 54.82027 -42.64044 39345 ft 503 kts 83°
2026-04-30 19:18 54.83437 -42.46077 39347 ft 501 kts 82°
2026-04-30 19:19 54.84358 -42.34152 39347 ft 502 kts 83°
2026-04-30 19:19 54.85719 -42.16234 39351 ft 501 kts 83°
2026-04-30 19:20 54.86608 -42.04323 39339 ft 501 kts 83°
2026-04-30 19:21 54.87922 -41.86433 39335 ft 500 kts 83°
2026-04-30 19:22 54.89637 -41.62489 39336 ft 502 kts 83°
2026-04-30 19:23 54.92120 -41.26566 39329 ft 502 kts 84°
2026-04-30 19:24 54.93324 -41.08544 39324 ft 504 kts 84°
2026-04-30 19:25 54.95271 -40.78503 39341 ft 503 kts 84°
2026-04-30 19:26 54.96778 -40.54417 39349 ft 502 kts 84°
2026-04-30 19:27 54.97871 -40.36427 39347 ft 501 kts 84°
2026-04-30 19:28 54.98940 -40.18379 39343 ft 502 kts 84°
2026-04-30 19:29 55.00216 -39.94253 39343 ft 502 kts 86°
2026-04-30 19:30 55.01194 -39.70027 39342 ft 503 kts 86°
2026-04-30 19:31 55.02103 -39.45904 39348 ft 501 kts 86°
2026-04-30 19:31 55.02752 -39.27838 39337 ft 502 kts 87°
2026-04-30 19:32 55.03170 -39.15768 39340 ft 501 kts 87°
2026-04-30 19:32 55.03577 -39.03675 39339 ft 501 kts 86°
2026-04-30 19:33 55.03971 -38.91603 39342 ft 501 kts 87°
2026-04-30 19:33 55.04353 -38.79521 39345 ft 500 kts 86°
2026-04-30 19:34 55.04723 -38.67468 39341 ft 501 kts 86°
2026-04-30 19:35 55.05256 -38.49329 39356 ft 501 kts 86°
2026-04-30 19:35 55.05595 -38.37281 39358 ft 500 kts 86°
2026-04-30 19:36 55.05921 -38.25277 39359 ft 500 kts 87°
2026-04-30 19:36 55.06392 -38.07127 39360 ft 500 kts 87°
2026-04-30 19:37 55.06690 -37.95071 39360 ft 502 kts 87°
2026-04-30 19:37 55.06978 -37.82927 39356 ft 501 kts 87°
2026-04-30 19:38 55.07252 -37.70814 39354 ft 501 kts 87°
2026-04-30 19:38 55.07513 -37.58790 39351 ft 501 kts 87°
2026-04-30 19:39 55.07765 -37.46648 39350 ft 502 kts 87°
2026-04-30 19:39 55.08003 -37.34591 39354 ft 501 kts 88°
2026-04-30 19:40 55.08229 -37.22508 39352 ft 501 kts 88°
2026-04-30 19:40 55.08444 -37.10368 39356 ft 500 kts 88°
2026-04-30 19:41 55.08645 -36.98365 39359 ft 499 kts 88°
2026-04-30 19:41 55.08837 -36.86218 39355 ft 500 kts 88°
2026-04-30 19:42 55.09015 -36.74152 39347 ft 501 kts 88°
2026-04-30 19:42 55.09181 -36.62070 39349 ft 500 kts 88°
2026-04-30 19:43 55.09335 -36.50044 39344 ft 501 kts 88°
2026-04-30 19:44 55.09545 -36.31888 39340 ft 500 kts 89°
2026-04-30 19:44 55.09669 -36.19796 39338 ft 502 kts 88°
2026-04-30 19:45 55.09782 -36.07632 39337 ft 500 kts 88°
2026-04-30 19:45 55.09883 -35.95565 39336 ft 502 kts 89°
2026-04-30 19:46 55.09972 -35.83447 39337 ft 500 kts 89°
2026-04-30 19:46 55.10048 -35.71318 39341 ft 501 kts 88°
2026-04-30 19:47 55.10112 -35.59290 39341 ft 499 kts 88°
2026-04-30 19:47 55.10165 -35.47233 39351 ft 500 kts 88°
2026-04-30 19:48 55.10206 -35.35152 39357 ft 500 kts 88°
2026-04-30 19:48 55.10235 -35.23042 39352 ft 500 kts 89°
2026-04-30 19:49 55.10252 -35.10985 39353 ft 501 kts 89°
2026-04-30 19:49 55.10255 -34.92768 39355 ft 502 kts 89°
2026-04-30 19:50 55.10241 -34.80698 39357 ft 501 kts 89°
2026-04-30 19:50 55.10216 -34.68588 39357 ft 500 kts 89°
2026-04-30 19:51 55.10179 -34.56506 39360 ft 500 kts 89°
2026-04-30 19:51 55.10130 -34.44427 39365 ft 499 kts 89°
2026-04-30 19:52 55.10069 -34.32320 39359 ft 500 kts 89°
2026-04-30 19:52 55.09996 -34.20314 39359 ft 500 kts 89°
2026-04-30 19:53 55.09912 -34.08247 39354 ft 501 kts 89°
2026-04-30 19:53 55.09814 -33.96074 39365 ft 502 kts 89°
2026-04-30 19:54 55.09705 -33.83984 39365 ft 500 kts 89°
2026-04-30 19:54 55.09584 -33.71913 39362 ft 500 kts 89°
2026-04-30 19:55 55.09452 -33.59845 39360 ft 499 kts 89°
2026-04-30 19:55 55.09307 -33.47742 39365 ft 499 kts 89°
2026-04-30 19:56 55.09151 -33.35731 39361 ft 498 kts 89°
2026-04-30 19:56 55.08983 -33.23717 39356 ft 499 kts 90°
2026-04-30 19:57 55.08803 -33.11655 39361 ft 498 kts 90°
2026-04-30 19:57 55.08611 -32.99605 39361 ft 498 kts 90°
2026-04-30 19:58 55.08408 -32.87608 39365 ft 498 kts 90°
2026-04-30 19:58 55.08193 -32.75576 39363 ft 498 kts 90°
2026-04-30 19:59 55.07966 -32.63571 39363 ft 498 kts 90°
2026-04-30 20:00 55.07603 -32.45517 39367 ft 496 kts 90°
2026-04-30 20:00 55.07348 -32.33573 39364 ft 497 kts 90°
2026-04-30 20:01 55.06941 -32.15559 39361 ft 496 kts 90°
2026-04-30 20:01 55.06657 -32.03622 39365 ft 495 kts 90°
2026-04-30 20:02 55.06208 -31.85721 39365 ft 494 kts 90°
2026-04-30 20:03 55.05733 -31.67812 39366 ft 495 kts 90°
2026-04-30 20:03 55.05403 -31.55911 39366 ft 493 kts 90°
2026-04-30 20:04 55.05062 -31.44015 39370 ft 493 kts 90°
2026-04-30 20:05 55.04528 -31.26183 39360 ft 494 kts 91°
2026-04-30 20:05 55.03967 -31.08334 39372 ft 493 kts 91°
2026-04-30 20:06 55.03579 -30.96461 39358 ft 492 kts 91°
2026-04-30 20:06 55.03182 -30.84644 39364 ft 493 kts 91°
2026-04-30 20:07 55.02770 -30.72748 39354 ft 493 kts 91°
2026-04-30 20:08 55.02135 -30.55036 39371 ft 493 kts 91°
2026-04-30 20:08 55.01694 -30.43115 39365 ft 493 kts 90°
2026-04-30 20:09 55.01244 -30.31275 39357 ft 492 kts 91°
2026-04-30 20:09 55.00550 -30.13588 39362 ft 493 kts 91°
2026-04-30 20:10 54.99736 -29.95811 39370 ft 492 kts 92°
2026-04-30 20:11 54.98729 -29.78149 39380 ft 491 kts 93°
2026-04-30 20:11 54.98032 -29.66336 39381 ft 494 kts 93°
2026-04-30 20:12 54.96959 -29.48596 39371 ft 491 kts 93°
2026-04-30 20:13 54.96237 -29.36907 39353 ft 491 kts 93°
2026-04-30 20:13 54.95496 -29.25105 39366 ft 492 kts 94°
2026-04-30 20:14 54.94747 -29.13347 39378 ft 491 kts 94°
2026-04-30 20:14 54.93988 -29.01619 39372 ft 491 kts 94°
2026-04-30 20:15 54.93216 -28.89873 39373 ft 490 kts 94°
2026-04-30 20:15 54.92434 -28.78145 39360 ft 491 kts 93°
2026-04-30 20:16 54.91640 -28.66419 39371 ft 490 kts 94°
2026-04-30 20:16 54.90838 -28.54748 39371 ft 490 kts 93°
2026-04-30 20:17 54.90024 -28.43062 39373 ft 488 kts 93°
2026-04-30 20:17 54.89202 -28.31435 39366 ft 488 kts 94°
2026-04-30 20:18 54.88370 -28.19817 39367 ft 487 kts 94°
2026-04-30 20:18 54.87524 -28.08157 39357 ft 488 kts 94°
2026-04-30 20:19 54.86670 -27.96571 39366 ft 487 kts 94°
2026-04-30 20:19 54.85802 -27.84922 39358 ft 488 kts 94°
2026-04-30 20:20 54.84922 -27.73276 39359 ft 489 kts 94°
2026-04-30 20:20 54.84034 -27.61688 39368 ft 487 kts 94°
2026-04-30 20:21 54.83134 -27.50085 39360 ft 486 kts 94°
2026-04-30 20:21 54.82226 -27.38529 39362 ft 485 kts 94°
2026-04-30 20:22 54.81311 -27.27017 39361 ft 485 kts 95°
2026-04-30 20:22 54.80384 -27.15508 39371 ft 484 kts 95°
2026-04-30 20:23 54.79446 -27.03995 39361 ft 486 kts 95°
2026-04-30 20:23 54.78493 -26.92441 39366 ft 486 kts 95°
2026-04-30 20:24 54.77527 -26.80881 39360 ft 484 kts 95°
2026-04-30 20:24 54.76560 -26.69424 39351 ft 485 kts 94°
2026-04-30 20:25 54.75087 -26.52235 39349 ft 484 kts 94°
2026-04-30 20:26 54.73590 -26.35059 39347 ft 482 kts 95°
2026-04-30 20:26 54.72066 -26.17859 39349 ft 484 kts 95°
2026-04-30 20:27 54.70005 -25.95066 39347 ft 483 kts 95°
2026-04-30 20:28 54.67900 -25.72269 39343 ft 481 kts 95°
2026-04-30 20:30 54.65226 -25.43982 39341 ft 480 kts 95°
2026-04-30 20:31 54.61927 -25.10063 39342 ft 480 kts 96°
2026-04-30 20:32 54.59111 -24.81890 39338 ft 479 kts 96°
2026-04-30 20:33 54.57384 -24.64956 39340 ft 479 kts 96°
2026-04-30 20:34 54.55640 -24.48087 39343 ft 478 kts 96°
2026-04-30 20:35 54.53880 -24.31309 39340 ft 477 kts 96°
2026-04-30 20:35 54.52094 -24.14516 39331 ft 478 kts 96°
2026-04-30 20:36 54.50890 -24.03330 39330 ft 477 kts 96°
2026-04-30 20:37 54.49070 -23.86610 39317 ft 476 kts 96°
2026-04-30 20:37 54.47847 -23.75500 39313 ft 475 kts 96°
2026-04-30 20:38 54.46611 -23.64359 39319 ft 475 kts 96°
2026-04-30 20:38 54.45365 -23.53246 39322 ft 476 kts 96°
2026-04-30 20:39 54.43480 -23.36603 39322 ft 475 kts 96°
2026-04-30 20:40 54.41563 -23.19895 39321 ft 477 kts 97°
2026-04-30 20:40 54.40279 -23.08828 39317 ft 475 kts 97°
2026-04-30 20:41 54.38331 -22.92204 39332 ft 474 kts 97°
2026-04-30 20:41 54.37031 -22.81227 39319 ft 474 kts 97°
2026-04-30 20:42 54.35708 -22.70151 39295 ft 474 kts 97°
2026-04-30 20:43 54.33718 -22.53661 39305 ft 474 kts 97°
2026-04-30 20:43 54.32380 -22.42689 39291 ft 472 kts 97°
2026-04-30 20:44 54.30365 -22.26321 39304 ft 472 kts 98°
2026-04-30 20:45 54.27635 -22.04464 39298 ft 470 kts 98°
2026-04-30 20:45 54.26259 -21.93571 39300 ft 469 kts 98°
2026-04-30 20:46 54.23489 -21.71900 39289 ft 467 kts 98°
2026-04-30 20:47 54.21399 -21.55759 39290 ft 467 kts 98°
2026-04-30 20:48 54.19289 -21.39657 39287 ft 465 kts 98°
2026-04-30 20:48 54.17865 -21.28881 39277 ft 467 kts 99°
2026-04-30 20:49 54.16430 -21.18108 39261 ft 467 kts 99°
2026-04-30 20:50 54.14263 -21.01996 39250 ft 467 kts 99°
2026-04-30 20:50 54.12811 -20.91290 39256 ft 465 kts 99°
2026-04-30 20:51 54.11350 -20.80599 39252 ft 465 kts 100°
2026-04-30 20:51 54.09137 -20.64545 39251 ft 466 kts 100°
2026-04-30 20:52 54.07646 -20.53836 39221 ft 466 kts 100°
2026-04-30 20:53 54.05395 -20.37789 39254 ft 468 kts 99°
2026-04-30 20:53 54.03884 -20.27125 39262 ft 466 kts 101°
2026-04-30 20:54 54.01590 -20.11061 39248 ft 467 kts 101°
2026-04-30 20:55 53.99118 -19.95186 39234 ft 467 kts 103°
2026-04-30 20:55 53.97288 -19.84658 39252 ft 467 kts 103°
2026-04-30 20:56 53.94500 -19.68849 39226 ft 467 kts 104°
2026-04-30 20:57 53.91702 -19.53175 39221 ft 465 kts 104°
2026-04-30 20:57 53.89822 -19.42723 39228 ft 465 kts 104°
2026-04-30 20:58 53.86985 -19.27071 39224 ft 465 kts 104°
2026-04-30 20:58 53.85089 -19.16680 39205 ft 466 kts 104°
2026-04-30 20:59 53.82217 -19.01054 39211 ft 465 kts 105°
2026-04-30 21:00 53.78372 -18.80338 39188 ft 462 kts 105°
2026-04-30 21:01 53.75478 -18.64897 39188 ft 462 kts 105°
2026-04-30 21:02 53.72571 -18.49509 39187 ft 461 kts 105°
2026-04-30 21:02 53.70608 -18.39187 39186 ft 462 kts 105°
2026-04-30 21:03 53.68646 -18.28929 39175 ft 461 kts 106°
2026-04-30 21:03 53.66679 -18.18704 39185 ft 461 kts 106°
2026-04-30 21:04 53.64698 -18.08456 39188 ft 461 kts 106°
2026-04-30 21:04 53.61714 -17.93123 39194 ft 461 kts 106°
2026-04-30 21:05 53.59713 -17.82908 39179 ft 461 kts 106°
2026-04-30 21:05 53.57709 -17.72737 39161 ft 460 kts 106°
2026-04-30 21:06 53.55689 -17.62538 39153 ft 461 kts 106°
2026-04-30 21:06 53.53680 -17.52442 39136 ft 459 kts 106°
2026-04-30 21:07 53.51649 -17.42289 39119 ft 459 kts 106°
2026-04-30 21:07 53.49620 -17.32196 39122 ft 460 kts 107°
2026-04-30 21:08 53.47577 -17.22094 39121 ft 459 kts 107°
2026-04-30 21:08 53.45526 -17.12001 39126 ft 459 kts 107°
2026-04-30 21:09 53.43468 -17.01923 39121 ft 459 kts 107°
2026-04-30 21:09 53.41393 -16.91813 39111 ft 459 kts 107°
2026-04-30 21:10 53.39328 -16.81800 39114 ft 458 kts 107°
2026-04-30 21:10 53.37251 -16.71782 39101 ft 457 kts 107°
2026-04-30 21:11 53.35156 -16.61732 39125 ft 458 kts 107°
2026-04-30 21:11 53.33067 -16.51755 39105 ft 455 kts 107°
2026-04-30 21:12 53.30979 -16.41834 39096 ft 455 kts 107°
2026-04-30 21:12 53.28876 -16.31891 39086 ft 457 kts 108°
2026-04-30 21:13 53.26750 -16.21886 39095 ft 457 kts 108°
2026-04-30 21:13 53.24633 -16.11972 39077 ft 455 kts 109°
2026-04-30 21:14 53.22511 -16.02088 39079 ft 455 kts 108°
2026-04-30 21:14 53.20385 -15.92230 39072 ft 454 kts 109°
2026-04-30 21:15 53.18241 -15.82340 39080 ft 454 kts 108°
2026-04-30 21:15 53.16099 -15.72499 39073 ft 455 kts 109°
2026-04-30 21:16 53.13943 -15.62646 39063 ft 454 kts 109°
2026-04-30 21:16 53.11786 -15.52832 39066 ft 454 kts 109°
2026-04-30 21:17 53.09618 -15.43021 39069 ft 453 kts 109°
2026-04-30 21:17 53.07449 -15.33246 39066 ft 452 kts 110°
2026-04-30 21:18 53.05278 -15.23508 39057 ft 452 kts 110°
2026-04-30 21:18 53.03099 -15.13784 39067 ft 451 kts 110°
2026-04-30 21:19 53.00927 -15.04073 39037 ft 452 kts 108°
2026-04-30 21:19 52.99903 -14.93845 39058 ft 453 kts 90°
2026-04-30 21:20 53.00012 -14.83451 39057 ft 452 kts 89°
2026-04-30 21:20 53.00065 -14.73115 39058 ft 449 kts 90°
2026-04-30 21:21 53.00092 -14.62791 39055 ft 451 kts 90°
2026-04-30 21:22 53.00103 -14.47224 39047 ft 450 kts 90°
2026-04-30 21:23 53.00082 -14.26483 39053 ft 451 kts 91°
2026-04-30 21:23 53.00041 -14.10997 39040 ft 450 kts 91°
2026-04-30 21:24 53.00002 -14.00691 39036 ft 450 kts 92°
2026-04-30 21:24 52.99735 -13.90386 39041 ft 450 kts 94°
2026-04-30 21:25 52.99280 -13.74822 39023 ft 450 kts 94°
2026-04-30 21:26 52.98809 -13.59347 39030 ft 450 kts 94°
2026-04-30 21:27 52.98320 -13.43895 39022 ft 451 kts 94°
2026-04-30 21:27 52.97981 -13.33527 39026 ft 450 kts 95°
2026-04-30 21:28 52.97458 -13.18064 39017 ft 450 kts 95°
2026-04-30 21:29 52.96914 -13.02581 39034 ft 450 kts 95°
2026-04-30 21:30 52.95963 -12.76783 38999 ft 451 kts 95°
2026-04-30 21:31 52.94957 -12.51009 39009 ft 450 kts 95°
2026-04-30 21:32 52.94842 -12.48165 39015 ft 450 kts 95°
2026-04-30 21:45 52.94642 -12.43238 38826 ft 455 kts 96°
2026-04-30 21:45 52.94427 -12.37997 38180 ft 458 kts 96°
2026-04-30 21:46 52.94213 -12.32800 37566 ft 450 kts 97°
2026-04-30 21:46 52.94000 -12.27707 36964 ft 442 kts 97°
2026-04-30 21:46 52.93790 -12.22714 36347 ft 435 kts 97°
2026-04-30 21:46 52.93576 -12.17720 35768 ft 432 kts 97°
2026-04-30 21:47 52.93364 -12.12802 35215 ft 433 kts 98°
2026-04-30 21:47 52.93145 -12.07821 34689 ft 435 kts 98°
2026-04-30 21:47 52.92926 -12.02829 34124 ft 435 kts 98°
2026-04-30 21:47 52.92708 -11.97909 33569 ft 432 kts 98°
2026-04-30 21:48 52.92487 -11.92965 33001 ft 430 kts 98°
2026-04-30 21:48 52.92263 -11.88039 32423 ft 430 kts 99°
2026-04-30 21:48 52.92038 -11.83135 31848 ft 430 kts 99°
2026-04-30 21:48 52.91814 -11.78277 31273 ft 428 kts 99°
2026-04-30 21:49 52.91585 -11.73359 30488 ft 434 kts 99°
2026-04-30 21:49 52.91341 -11.68325 28071 ft 468 kts 98°
2026-04-30 21:49 52.91089 -11.63017 26335 ft 461 kts 98°
2026-04-30 21:49 52.90849 -11.57868 25464 ft 436 kts 98°
2026-04-30 21:50 52.90794 -11.56698 25279 ft 431 kts 98°
2026-04-30 21:50 52.90554 -11.51923 24455 ft 412 kts 95°
2026-04-30 21:50 52.90341 -11.47378 23946 ft 386 kts 95°
2026-04-30 21:50 52.90125 -11.43023 23468 ft 385 kts 95°
2026-04-30 21:51 52.89904 -11.38542 23020 ft 395 kts 95°
2026-04-30 21:51 52.89683 -11.34055 22516 ft 393 kts 97°
2026-04-30 21:51 52.89460 -11.29586 22035 ft 386 kts 98°
2026-04-30 21:51 52.89240 -11.25207 21567 ft 384 kts 98°
2026-04-30 21:52 52.89018 -11.20856 21114 ft 381 kts 99°
2026-04-30 21:52 52.88796 -11.16532 20680 ft 377 kts 99°
2026-04-30 21:52 52.88570 -11.12198 20235 ft 376 kts 99°
2026-04-30 21:52 52.88347 -11.07944 19800 ft 374 kts 99°
2026-04-30 21:53 52.88121 -11.03656 19361 ft 371 kts 99°
2026-04-30 21:53 52.87897 -10.99437 18931 ft 369 kts 99°
2026-04-30 21:53 52.87674 -10.95235 18515 ft 368 kts 98°
2026-04-30 21:53 52.87449 -10.91028 18124 ft 369 kts 98°
2026-04-30 21:54 52.87220 -10.86811 17758 ft 375 kts 98°
2026-04-30 21:54 52.86990 -10.82545 17311 ft 368 kts 98°
2026-04-30 21:54 52.86764 -10.78383 16880 ft 361 kts 99°
2026-04-30 21:54 52.86538 -10.74282 16466 ft 360 kts 99°
2026-04-30 21:55 52.86311 -10.70197 16065 ft 361 kts 98°
2026-04-30 21:55 52.86083 -10.66107 15652 ft 358 kts 98°
2026-04-30 21:55 52.85853 -10.61993 15240 ft 357 kts 98°
2026-04-30 21:55 52.85625 -10.57950 14829 ft 356 kts 98°
2026-04-30 21:56 52.85393 -10.53865 14406 ft 355 kts 98°
2026-04-30 21:56 52.85162 -10.49810 13973 ft 354 kts 98°
2026-04-30 21:56 52.84931 -10.45799 13545 ft 353 kts 98°
2026-04-30 21:56 52.84701 -10.41822 13106 ft 350 kts 98°
2026-04-30 21:57 52.84469 -10.37838 12658 ft 348 kts 98°
2026-04-30 21:57 52.84237 -10.33868 12227 ft 347 kts 99°
2026-04-30 21:57 52.84004 -10.29911 11777 ft 346 kts 98°
2026-04-30 21:57 52.83773 -10.25990 11324 ft 344 kts 98°
2026-04-30 21:58 52.83540 -10.22086 10879 ft 342 kts 98°
2026-04-30 21:58 52.83306 -10.18163 10419 ft 341 kts 98°
2026-04-30 21:58 52.83077 -10.14341 10220 ft 325 kts 98°
2026-04-30 21:58 52.82862 -10.10749 9773 ft 308 kts 98°
2026-04-30 21:59 52.82655 -10.07328 9387 ft 292 kts 98°
2026-04-30 21:59 52.82457 -10.04087 9063 ft 277 kts 98°
2026-04-30 21:59 52.82270 -10.01030 8863 ft 259 kts 98°
2026-04-30 22:00 52.81914 -9.95292 8862 ft 257 kts 99°
2026-04-30 22:00 52.81543 -9.89360 8911 ft 261 kts 98°
2026-04-30 22:00 52.81358 -9.86377 8897 ft 257 kts 98°
2026-04-30 22:01 52.81175 -9.83468 8881 ft 257 kts 98°
2026-04-30 22:01 52.80989 -9.80527 8770 ft 261 kts 99°
2026-04-30 22:01 52.80801 -9.77566 8619 ft 259 kts 98°
2026-04-30 22:01 52.80576 -9.74585 8287 ft 258 kts 106°
2026-04-30 22:02 52.79819 -9.72009 8117 ft 247 kts 126°
2026-04-30 22:02 52.78796 -9.69723 7837 ft 248 kts 127°
2026-04-30 22:02 52.77767 -9.67457 7579 ft 248 kts 128°
2026-04-30 22:02 52.76724 -9.65217 7324 ft 250 kts 128°
2026-04-30 22:03 52.75655 -9.62951 7064 ft 250 kts 128°
2026-04-30 22:03 52.74589 -9.60712 6798 ft 248 kts 128°
2026-04-30 22:03 52.73519 -9.58476 6542 ft 248 kts 128°
2026-04-30 22:03 52.72452 -9.56253 6293 ft 247 kts 128°
2026-04-30 22:04 52.71388 -9.54040 6041 ft 245 kts 129°
2026-04-30 22:04 52.70333 -9.51854 5795 ft 244 kts 129°
2026-04-30 22:04 52.68229 -9.47501 5318 ft 242 kts 129°
2026-04-30 22:05 52.67188 -9.45350 5083 ft 242 kts 129°
2026-04-30 22:05 52.66146 -9.43201 4851 ft 241 kts 128°
2026-04-30 22:05 52.65097 -9.41039 4612 ft 240 kts 128°
2026-04-30 22:05 52.64069 -9.38921 4379 ft 238 kts 128°
2026-04-30 22:06 52.63037 -9.36796 4164 ft 238 kts 128°
2026-04-30 22:06 52.60987 -9.32581 3720 ft 237 kts 129°
2026-04-30 22:06 52.59961 -9.30474 3479 ft 235 kts 129°
2026-04-30 22:07 52.58940 -9.28379 3292 ft 231 kts 129°
2026-04-30 22:07 52.57954 -9.26358 3184 ft 219 kts 129°
2026-04-30 22:07 52.57082 -9.24442 3154 ft 202 kts 117°
2026-04-30 22:07 52.56839 -9.22305 3147 ft 185 kts 92°
2026-04-30 22:08 52.57137 -9.20356 3047 ft 174 kts 61°
2026-04-30 22:08 52.57824 -9.18867 3145 ft 168 kts 59°
2026-04-30 22:08 52.58539 -9.17237 3062 ft 178 kts 59°
2026-04-30 22:08 52.59259 -9.15661 3057 ft 169 kts 58°
2026-04-30 22:09 52.59976 -9.14105 3048 ft 173 kts 58°
2026-04-30 22:09 52.60718 -9.12512 2823 ft 173 kts 57°
2026-04-30 22:09 52.61440 -9.10980 2590 ft 169 kts 57°
2026-04-30 22:09 52.62157 -9.09460 2385 ft 167 kts 57°
2026-04-30 22:10 52.62859 -9.07980 2155 ft 161 kts 57°
2026-04-30 22:10 52.63537 -9.06552 1924 ft 156 kts 57°
2026-04-30 22:10 52.64166 -9.05235 1687 ft 137 kts 57°
2026-04-30 22:10 52.64718 -9.04074 1473 ft 125 kts 57°
2026-04-30 22:11 52.65815 -9.01776 1180 ft 132 kts 55°
2026-04-30 22:11 52.66392 -9.00610 999 ft 128 kts 55°
2026-04-30 22:11 52.66933 -8.99460 817 ft 126 kts 57°
2026-04-30 22:12 52.67446 -8.98324 654 ft 123 kts 57°
2026-04-30 22:12 52.67964 -8.97179 508 ft 133 kts 55°
2026-04-30 22:12 52.68578 -8.95879 438 ft 143 kts 53°
2026-04-30 22:12 52.69168 -8.94670 159 ft 129 kts 54°
2026-04-30 22:13 52.69677 -8.93585 35 ft 101 kts 50°
2026-04-30 22:13 52.69918 -8.93073 26 ft 17 kts 58°
2026-04-30 22:13 52.69871 -8.92899 25 ft 17 kts 137°
2026-04-30 22:13 52.69783 -8.92759 24 ft 17 kts 134°
2026-04-30 22:14 52.69699 -8.92620 22 ft 17 kts 136°
2026-04-30 22:14 52.69613 -8.92479 21 ft 17 kts 134°
2026-04-30 22:14 52.69538 -8.92347 20 ft 13 kts 128°
2026-04-30 22:14 52.69492 -8.92287 20 ft 7 kts 149°
2026-04-30 22:15 52.69442 -8.92275 20 ft 6 kts 192°
2026-04-30 22:15 52.69403 -8.92279 20 ft 1 kts 179°
2026-04-30 22:15 52.69382 -8.92281 20 ft 3 kts 184°
2026-04-30 22:15 52.69381 -8.92282 20 ft 0 kts 184°